1497697200.37,42055,16.25,73408.8,-0.15,-0.77,-0.89,0,*63
1497697201.59,42056,16.25,73412.8,-0.13,-0.77,-0.77,0,*67
1497697202.8,42057,16.25,73414.8,-0.13,-0.73,-0.73,0,*66
1497697203.97,42058,16.25,73414.8,-0.15,-0.61,-0.65,0,*6B
1497697205.18,42059,16.25,73420.5,-0.13,-0.61,-0.49,0,*62
1497697206.39,42060,16.25,73410.5,-0.13,-0.53,-0.49,0,*69
1497697207.61,42061,16.25,73406.0,-0.13,-0.41,-0.37,0,*62
1497697208.83,42062,16.25,73408.3,-0.11,-0.23,-0.23,0,*62
1497697210.06,42063,16.25,73410.8,-0.11,-0.27,-0.27,0,*63
1497697211.29,42064,16.25,73410.8,-0.11,-0.27,-0.27,0,*64
1497697212.54,42065,16.25,73412.8,-0.09,-0.27,-0.27,0,*5C
1497697213.73,42066,16.25,73404.8,-0.09,-0.15,-0.07,0,*6C
1497697214.92,42067,16.25,73416.5,-0.09,-0.07,0.01,0,*75
1497697216.1,42068,16.25,73410.0,-0.07,0.09,0.17,0,*60
1497697217.26,42069,16.25,73418.0,-0.07,0.05,0.05,0,*5E
1497697218.45,42070,16.25,73414.0,-0.07,-0.19,-0.11,0,*5E
1497697219.65,42071,16.25,73416.8,-0.05,-0.19,-0.19,0,*55
1497697220.86,42072,16.25,73420.0,-0.05,-0.49,-0.41,0,*5E
1497697222.03,42073,16.25,73426.3,-0.07,-0.65,-0.53,0,*50
1497697223.2,42074,16.25,73426.0,-0.07,-0.57,-0.53,0,*56
1497697224.41,42075,16.25,73426.5,-0.05,-0.49,-0.49,0,*51
1497697225.59,42076,16.25,73426.8,-0.07,-0.41,-0.45,0,*54
1497697226.8,42077,16.25,73430.5,-0.05,-0.41,-0.41,0,*53
1497697227.99,42078,16.25,73436.3,-0.05,-0.53,-0.53,0,*5C
1497697229.18,42079,16.25,73428.3,-0.05,-0.61,-0.61,0,*5D
1497697230.36,42080,16.25,73422.0,-0.03,-0.49,-0.41,0,*55
1497697231.61,42081,16.25,73424.0,-0.01,-0.27,-0.27,0,*5E
1497697232.79,42082,16.25,73426.5,-0.03,-0.19,-0.19,0,*5F
1497697233.96,42083,16.25,73424.5,-0.03,-0.15,-0.15,0,*5E
1497697235.11,42084,16.25,73434.5,-0.03,0.01,0.01,0,*59
1497697236.26,42085,16.25,73432.3,-0.03,0.01,0.05,0,*5C
1497697237.43,42086,16.25,73432.0,-0.03,-0.03,-0.03,0,*5B
1497697238.61,42087,16.25,73436.0,-0.01,0.05,0.05,0,*58
1497697239.8,42088,16.25,73434.0,-0.01,0.05,0.05,0,*57
1497697240.99,42089,16.25,73416.3,-0.01,-0.03,-0.03,0,*56
1497697242.15,42090,16.25,73412.0,0.01,-0.03,0.05,0,*58
1497697243.3,42091,16.25,73426.3,0.01,0.05,0.05,0,*72
1497697244.47,42092,16.25,73422.8,0.01,0.05,0.17,0,*42
1497697245.64,42093,16.25,73432.8,0.05,0.09,0.17,0,*4B
1497697246.79,42094,16.25,73428.5,0.05,0.01,-0.07,0,*58
1497697247.96,42095,16.25,73424.3,0.05,-0.33,-0.33,0,*72
1497697249.12,42096,16.25,73424.8,0.05,-0.57,-0.53,0,*75
1497697250.29,42097,16.25,73426.8,0.05,-0.57,-0.57,0,*70
1497697251.46,42098,16.25,73424.3,0.05,-0.65,-0.57,0,*7E
1497697252.63,42099,16.25,73424.3,0.05,-0.69,-0.69,0,*7E
1497697253.8,42100,16.25,73428.3,0.05,-0.81,-0.73,0,*72
1497697254.97,42101,16.25,73424.8,0.05,-0.73,-0.73,0,*7E
1497697256.14,42102,16.25,73414.0,0.01,-0.69,-0.61,0,*71
1497697257.3,42103,16.25,73414.5,0.05,-0.45,-0.45,0,*7C
1497697258.48,42104,16.25,73406.3,0.05,-0.41,-0.41,0,*7B
1497697259.66,42105,16.25,73426.0,0.05,-0.41,-0.41,0,*7A
1497697260.83,42106,16.25,73422.8,0.05,-0.45,-0.41,0,*7D
1497697262.0,42107,16.25,73416.3,0.05,-0.45,-0.45,0,*78
1497697263.17,42108,16.25,73414.3,0.05,-0.57,-0.45,0,*74
1497697264.33,42109,16.25,73396.3,0.05,-0.69,-0.69,0,*76
1497697265.5,42110,16.25,73402.5,0.05,-0.69,-0.81,0,*78
1497697266.67,42111,16.25,73404.8,0.05,-0.69,-0.65,0,*73
1497697267.84,42112,16.25,73398.0,0.01,-0.57,-0.49,0,*77
1497697268.99,42113,16.25,73402.3,0.01,-0.61,-0.61,0,*79
1497697270.16,42114,16.25,73414.0,0.05,-0.69,-0.69,0,*7A
1497697271.34,42115,16.25,73416.0,0.01,-0.73,-0.73,0,*7F
1497697272.51,42116,16.25,73414.5,0.01,-0.73,-0.77,0,*78
1497697273.72,42117,16.25,73418.8,0.01,-0.85,-0.85,0,*7D
1497697274.9,42118,16.25,73424.5,0.05,-0.73,-0.73,0,*76
1497697276.11,42119,16.25,73418.0,0.01,-0.85,-0.85,0,*73
1497697277.29,42120,16.25,73426.0,0.05,-1.21,-1.29,0,*75
1497697278.46,42121,16.25,73426.3,0.01,-1.59,-1.63,0,*71
1497697279.69,42122,16.25,73432.8,0.01,-1.87,-1.87,0,*7B
1497697280.92,42123,16.25,73418.5,-0.01,-2.19,-2.11,0,*5F
1497697282.13,42124,16.25,73404.0,-0.01,-2.31,-2.35,0,*54
1497697283.31,42125,16.25,73414.3,-0.03,-2.35,-2.35,0,*53
1497697284.55,42126,16.25,73404.0,-0.05,-2.11,-2.23,0,*57
1497697285.76,42127,16.25,73412.8,-0.07,-2.07,-2.19,0,*5A
1497697286.97,42128,16.25,73424.0,-0.07,-2.03,-2.15,0,*5D
1497697288.16,42129,16.25,73426.0,-0.11,-2.23,-2.23,0,*6C
1497697289.38,42130,16.25,73420.0,-0.09,-2.31,-2.35,0,*59
1497697290.56,42131,16.25,73412.3,-0.11,-2.43,-2.35,0,*64
1497697291.81,42132,16.25,73412.8,-0.13,-2.11,-2.23,0,*65
1497697293.03,42133,16.25,73424.5,-0.15,-1.87,-1.79,0,*62
1497697294.25,42134,16.25,73414.8,-0.13,-1.63,-1.63,0,*62
1497697295.43,42135,16.25,73400.3,-0.15,-1.63,-1.59,0,*6C
1497697296.63,42136,16.25,73418.5,-0.15,-1.63,-1.71,0,*65
1497697297.83,42137,16.25,73414.8,-0.15,-1.71,-1.71,0,*67
1497697299.02,42138,16.25,73404.8,-0.15,-1.75,-1.75,0,*68
1497697300.24,42139,16.25,73412.8,-0.17,-1.75,-1.67,0,*68
1497697301.46,42140,16.25,73408.5,-0.17,-1.75,-1.79,0,*69
1497697302.65,42141,16.25,73388.0,-0.21,-1.63,-1.67,0,*65
1497697303.83,42142,16.25,73396.0,-0.21,-1.33,-1.33,0,*62
1497697305.05,42143,16.25,73398.5,-0.21,-1.39,-1.51,0,*6D
1497697306.24,42144,16.25,73392.0,-0.21,-1.67,-1.75,0,*67
1497697307.42,42145,16.25,73402.8,-0.21,-1.63,-1.55,0,*60
1497697308.61,42146,16.25,73416.0,-0.21,-1.29,-1.21,0,*6E
1497697309.8,42147,16.25,73414.5,-0.21,-1.17,-1.17,0,*67
1497697311.03,42148,16.25,73404.3,-0.17,-1.17,-1.29,0,*60
1497697312.25,42149,16.25,73406.0,-0.21,-1.33,-1.39,0,*63
1497697313.45,42150,16.25,73406.3,-0.23,-1.25,-1.33,0,*64
1497697314.64,42151,16.25,73406.8,-0.21,-1.29,-1.29,0,*60
1497697315.89,42152,16.25,73408.0,-0.17,-1.39,-1.33,0,*6C
1497697317.08,42153,16.25,73416.0,-0.21,-1.33,-1.33,0,*62
1497697318.27,42154,16.25,73426.5,-0.21,-1.21,-1.17,0,*60
1497697319.46,42155,16.25,73422.8,-0.21,-1.29,-1.21,0,*6C
1497697320.69,42156,16.25,73424.5,-0.17,-1.17,-1.17,0,*62
1497697321.88,42157,16.25,73422.8,-0.21,-1.21,-1.29,0,*6E
1497697323.09,42158,16.25,73416.5,-0.21,-1.17,-1.09,0,*66
1497697324.35,42159,16.25,73414.8,-0.17,-0.97,-0.97,0,*6D
1497697325.58,42160,16.25,73410.0,-0.21,-0.97,-0.97,0,*62
1497697326.83,42161,16.25,73422.8,-0.17,-0.93,-0.89,0,*6D
1497697328.05,42162,16.25,73410.8,-0.17,-0.81,-0.77,0,*6C
1497697329.26,42163,16.25,73390.5,-0.17,-0.81,-0.65,0,*6E
1497697330.47,42164,16.25,73420.3,-0.17,-0.65,-0.65,0,*63
1497697331.65,42165,16.25,73416.5,-0.15,-0.61,-0.49,0,*6A
1497697332.83,42166,16.25,73414.3,-0.15,-0.65,-0.61,0,*67
1497697334.01,42167,16.25,73420.0,-0.15,-0.73,-0.65,0,*65
1497697335.19,42168,16.25,73418.3,-0.15,-0.65,-0.65,0,*6D
1497697336.36,42169,16.25,73428.3,-0.15,-0.61,-0.61,0,*6C
1497697337.57,42170,16.25,73426.3,-0.13,-0.65,-0.77,0,*61
1497697338.79,42171,16.25,73428.3,-0.13,-0.73,-0.73,0,*63
1497697340.0,42172,16.25,73440.3,-0.13,-0.77,-0.77,0,*60
1497697341.2,42173,16.25,73428.5,-0.13,-0.65,-0.65,0,*61
1497697342.4,42174,16.25,73430.8,-0.13,-0.61,-0.61,0,*66
1497697343.61,42175,16.25,73438.8,-0.13,-0.53,-0.53,0,*67
1497697344.79,42176,16.25,73436.8,-0.11,-0.45,-0.45,0,*66
1497697345.96,42177,16.25,73440.5,-0.11,-0.45,-0.45,0,*67
1497697347.17,42178,16.25,73436.8,-0.09,-0.49,-0.37,0,*58
1497697348.37,42179,16.25,73436.5,-0.09,-0.61,-0.57,0,*55
1497697349.53,42180,16.25,73440.8,-0.11,-0.61,-0.61,0,*6F
1497697350.72,42181,16.25,73434.5,-0.11,-0.73,-0.69,0,*65
1497697351.93,42182,16.25,73432.0,-0.09,-0.73,-0.73,0,*54
1497697353.14,42183,16.25,73432.5,-0.09,-0.73,-0.73,0,*55
1497697354.35,42184,16.25,73432.3,-0.09,-0.81,-0.73,0,*5F
1497697355.53,42185,16.25,73438.8,-0.11,-0.69,-0.69,0,*6A
1497697356.72,42186,16.25,73438.0,-0.09,-0.61,-0.61,0,*50
1497697357.92,42187,16.25,73436.8,-0.09,-0.45,-0.45,0,*51
1497697359.12,42188,16.25,73440.5,-0.09,-0.49,-0.45,0,*52
1497697360.3,42189,16.25,73444.8,-0.07,-0.57,-0.53,0,*55
1497697361.47,42190,16.25,73452.3,-0.07,-0.57,-0.57,0,*59
1497697362.69,42191,16.25,73438.0,-0.07,-0.85,-0.85,0,*58
1497697363.88,42192,16.25,73430.5,-0.07,-1.29,-1.29,0,*5B
1497697365.07,42193,16.25,73430.0,-0.07,-1.29,-1.33,0,*51
1497697366.3,42194,16.25,73434.0,-0.07,-1.05,-1.09,0,*51
1497697367.52,42195,16.25,73432.5,-0.07,-0.85,-0.85,0,*5C
1497697368.7,42196,16.25,73438.0,-0.07,-0.77,-0.81,0,*56
1497697369.87,42197,16.25,73432.8,-0.07,-0.77,-0.69,0,*51
1497697371.05,42198,16.25,73436.0,-0.07,-0.77,-0.69,0,*5E
1497697372.23,42199,16.25,73438.0,-0.07,-0.77,-0.77,0,*50
1497697373.41,42200,16.25,73438.0,-0.07,-0.81,-0.81,0,*53
1497697374.61,42201,16.25,73444.5,-0.07,-0.81,-0.85,0,*56
1497697375.81,42202,16.25,73436.3,-0.07,-0.81,-0.85,0,*55
1497697377.02,42203,16.25,73420.3,-0.07,-0.93,-0.93,0,*50
1497697378.24,42204,16.25,73438.0,-0.07,-0.93,-0.85,0,*50
1497697379.42,42205,16.25,73440.8,-0.07,-0.81,-0.81,0,*56
1497697380.59,42206,16.25,73440.0,-0.07,-0.77,-0.65,0,*56
1497697381.76,42207,16.25,73442.0,-0.07,-0.61,-0.61,0,*54
1497697382.94,42208,16.25,73438.8,-0.07,-0.81,-0.81,0,*5B
1497697384.16,42209,16.25,73434.5,-0.07,-0.85,-0.85,0,*5A
1497697385.36,42210,16.25,73432.0,-0.07,-0.85,-0.77,0,*5F
1497697386.54,42211,16.25,73440.0,-0.07,-0.81,-0.81,0,*53
1497697387.74,42212,16.25,73436.0,-0.05,-0.77,-0.77,0,*52
1497697388.94,42213,16.25,73434.0,-0.07,-0.85,-0.81,0,*55
1497697390.14,42214,16.25,73428.8,-0.05,-0.77,-0.77,0,*54
1497697391.32,42215,16.25,73428.3,-0.07,-0.65,-0.57,0,*56
1497697392.5,42216,16.25,73438.0,-0.07,-0.53,-0.53,0,*54
1497697393.7,42217,16.25,73440.3,-0.05,-0.41,-0.37,0,*56
1497697394.92,42218,16.25,73434.5,-0.05,-0.29,-0.27,0,*56
1497697396.14,42219,16.25,73436.3,-0.05,-0.29,-0.27,0,*57
1497697397.33,42220,16.25,73426.0,-0.05,-0.29,-0.29,0,*53
1497697398.51,42221,16.25,73430.8,-0.03,-0.37,-0.37,0,*54
1497697399.68,42222,16.25,73430.8,-0.03,-0.37,-0.29,0,*58
1497697400.86,42223,16.25,73428.8,-0.03,-0.37,-0.37,0,*56
1497697402.04,42224,16.25,73432.5,-0.03,-0.41,-0.37,0,*50
1497697403.21,42225,16.25,73438.0,-0.03,-0.37,-0.29,0,*5F
1497697404.39,42226,16.25,73436.3,-0.03,-0.41,-0.49,0,*5B
1497697405.59,42227,16.25,73438.0,-0.01,-0.49,-0.49,0,*50
1497697406.79,42228,16.25,73434.0,-0.01,-0.69,-0.73,0,*54
1497697408.02,42229,16.25,73432.5,-0.01,-0.85,-0.77,0,*53
1497697409.25,42230,16.31,73430.5,-0.01,-1.21,-1.09,0,*5C
1497697410.51,42231,16.25,73436.8,-0.01,-1.01,-1.01,0,*57
1497697411.72,42232,16.25,73420.5,-0.03,-0.93,-0.93,0,*56
1497697412.97,42233,16.25,73436.0,-0.01,-0.89,-0.89,0,*55
1497697414.15,42234,16.31,73432.0,-0.03,-0.81,-0.81,0,*50
1497697415.39,42235,16.25,73422.5,-0.01,-0.85,-0.89,0,*5F
1497697416.63,42236,16.25,73432.0,-0.03,-1.05,-1.01,0,*56
1497697417.8,42237,16.25,73448.8,-0.03,-0.81,-0.81,0,*53
1497697418.98,42238,16.31,73450.8,-0.03,-0.77,-0.73,0,*58
1497697420.2,42239,16.31,73442.0,-0.01,-0.73,-0.85,0,*56
1497697421.4,42240,16.25,73436.3,-0.03,-0.89,-0.81,0,*5B
1497697422.63,42241,16.25,73436.8,-0.03,-1.01,-0.89,0,*63
1497697423.84,42242,16.25,73428.5,-0.03,-0.93,-0.93,0,*51
1497697425.04,42243,16.25,73430.8,-0.03,-0.93,-0.81,0,*53
1497697426.21,42244,16.25,73436.3,-0.03,-0.73,-0.81,0,*5A
1497697427.39,42245,16.25,73438.0,-0.03,-0.53,-0.49,0,*5D
1497697428.57,42246,16.25,73438.3,-0.03,-0.49,-0.49,0,*55
1497697429.77,42247,16.25,73432.0,-0.01,-0.45,-0.49,0,*5A
1497697430.97,42248,16.25,73434.3,-0.01,-0.49,-0.49,0,*59
1497697432.14,42249,16.25,73430.5,-0.03,-0.53,-0.53,0,*5A
1497697433.34,42250,16.25,73440.0,-0.01,-0.57,-0.57,0,*50
1497697434.51,42251,16.25,73442.0,-0.03,-0.65,-0.65,0,*53
1497697435.72,42252,16.25,73436.5,-0.01,-0.73,-0.73,0,*52
1497697436.97,42253,16.25,73434.8,-0.01,-0.97,-1.01,0,*6D
1497697438.22,42254,16.25,73438.8,-0.01,-0.85,-0.89,0,*58
1497697439.42,42255,16.25,73438.3,-0.01,-0.77,-0.77,0,*55
1497697440.6,42256,16.25,73430.0,-0.03,-0.73,-0.73,0,*54
1497697441.77,42257,16.25,73432.5,-0.03,-0.65,-0.73,0,*52
1497697442.98,42258,16.25,73434.3,-0.01,-0.57,-0.57,0,*58
1497697444.17,42259,16.25,73430.8,-0.01,-0.45,-0.45,0,*59
1497697445.38,42260,16.31,73432.0,-0.01,-0.49,-0.49,0,*53
1497697446.55,42261,16.25,73434.3,-0.03,-0.53,-0.49,0,*5B
1497697447.75,42262,16.25,73434.3,-0.01,-0.69,-0.69,0,*51
1497697449.0,42263,16.25,73440.0,-0.01,-0.89,-0.89,0,*50
1497697450.21,42264,16.31,73434.3,0.01,-0.89,-0.85,0,*76
1497697451.42,42265,16.25,73428.8,0.01,-0.89,-0.97,0,*74
1497697452.68,42266,16.25,73428.5,-0.01,-0.97,-1.01,0,*6B
1497697453.94,42267,16.25,73426.0,-0.01,-1.43,-1.43,0,*54
1497697455.15,42268,16.25,73410.8,-0.01,-1.55,-1.63,0,*5E
1497697456.37,42269,16.31,73416.3,-0.01,-1.71,-1.71,0,*5A
1497697457.54,42270,16.25,73414.0,-0.03,-1.51,-1.51,0,*50
1497697458.78,42271,16.25,73410.3,-0.03,-1.35,-1.39,0,*5D
1497697459.96,42272,16.31,73432.3,-0.03,-1.17,-1.25,0,*53
1497697461.2,42273,16.25,73434.3,-0.07,-1.05,-1.05,0,*57
1497697462.44,42274,16.25,73430.0,-0.05,-0.93,-0.93,0,*52
1497697463.67,42275,16.25,73440.0,-0.07,-1.09,-1.05,0,*5D
1497697464.86,42276,16.25,73438.0,-0.07,-1.29,-1.29,0,*52
1497697466.04,42277,16.25,73440.5,-0.07,-1.51,-1.51,0,*53
1497697467.24,42278,16.25,73434.5,-0.05,-1.51,-1.59,0,*56
1497697468.43,42279,16.25,73434.0,-0.07,-1.71,-1.79,0,*55
1497697469.67,42280,16.25,73438.5,-0.07,-1.83,-1.91,0,*58
1497697470.93,42281,16.31,73432.3,-0.09,-1.87,-1.95,0,*57
1497697472.17,42282,16.25,73436.3,-0.11,-1.87,-1.87,0,*6E
1497697473.36,42283,16.25,73430.5,-0.11,-1.71,-1.71,0,*6F
1497697474.63,42284,16.25,73422.0,-0.09,-1.35,-1.35,0,*51
1497697475.82,42285,16.25,73420.0,-0.11,-1.21,-1.21,0,*69
1497697477.06,42286,16.25,73428.3,-0.11,-1.01,-1.01,0,*6A
1497697478.28,42287,16.25,73430.5,-0.11,-0.97,-0.89,0,*64
1497697479.51,42288,16.25,73438.3,-0.11,-0.89,-0.89,0,*64
1497697480.74,42289,16.31,73432.5,-0.11,-1.01,-0.97,0,*5B
1497697482.0,42290,16.31,73438.5,-0.09,-1.35,-1.43,0,*55
1497697483.22,42291,16.25,73426.5,-0.11,-1.47,-1.55,0,*6F
1497697484.41,42292,16.31,73434.0,-0.11,-1.71,-1.75,0,*6B
1497697485.63,42293,16.25,73426.0,-0.11,-1.71,-1.83,0,*63
1497697486.84,42294,16.25,73424.3,-0.11,-1.75,-1.83,0,*60
1497697488.09,42295,16.25,73420.5,-0.13,-2.11,-2.15,0,*6E
1497697489.28,42296,16.25,73426.3,-0.15,-2.15,-2.23,0,*6A
1497697490.46,42297,16.31,73422.3,-0.15,-2.15,-2.27,0,*6F
1497697491.65,42298,16.31,73430.8,-0.15,-2.23,-2.27,0,*65
1497697492.87,42299,16.25,73418.3,-0.15,-2.03,-2.23,0,*62
1497697494.14,42300,16.31,73428.3,-0.17,-1.83,-1.83,0,*63
1497697495.33,42301,16.31,73424.3,-0.21,-1.55,-1.55,0,*67
1497697496.51,42302,16.25,73422.0,-0.21,-1.55,-1.55,0,*64
1497697497.7,42303,16.25,73412.0,-0.21,-1.63,-1.67,0,*61
1497697498.92,42304,16.31,73418.8,-0.17,-1.55,-1.55,0,*67
1497697500.1,42305,16.31,73422.0,-0.21,-1.29,-1.29,0,*63
1497697501.33,42306,16.25,73418.0,-0.21,-1.09,-0.97,0,*56
1497697502.56,42307,16.25,73426.5,-0.21,-0.97,-0.97,0,*61
1497697503.82,42308,16.25,73434.3,-0.17,-0.97,-0.97,0,*6B
1497697505.09,42309,16.31,73430.0,-0.17,-1.05,-1.05,0,*6A
1497697506.37,42310,16.31,73436.8,-0.17,-1.05,-1.05,0,*62
1497697507.58,42311,16.25,73440.5,-0.21,-1.09,-1.17,0,*69
1497697508.84,42312,16.31,73436.5,-0.17,-1.09,-1.09,0,*60
1497697510.11,42313,16.31,73428.8,-0.17,-1.05,-1.09,0,*6D
1497697511.38,42314,16.31,73446.8,-0.17,-1.09,-1.09,0,*66
1497697512.65,42315,16.31,73452.3,-0.17,-1.05,-0.97,0,*5D
1497697513.91,42316,16.31,73448.5,-0.17,-0.97,-0.97,0,*64
1497697515.13,42317,16.31,73428.5,-0.17,-1.21,-1.17,0,*60
1497697516.4,42318,16.25,73416.0,-0.17,-1.09,-1.09,0,*6A
1497697517.65,42319,16.25,73412.5,-0.17,-1.17,-1.09,0,*64
1497697518.91,42320,16.25,73418.0,-0.17,-0.97,-0.97,0,*61
1497697520.13,42321,16.31,73422.3,-0.15,-0.89,-0.93,0,*69
1497697521.36,42322,16.31,73426.3,-0.15,-0.89,-0.89,0,*61
1497697522.62,42323,16.25,73436.3,-0.13,-0.85,-0.89,0,*6A
1497697523.87,42324,16.25,73436.0,-0.13,-0.89,-0.89,0,*61
1497697525.14,42325,16.25,73434.5,-0.13,-1.01,-1.05,0,*64
1497697526.36,42326,16.25,73432.8,-0.15,-1.29,-1.39,0,*64
1497697527.61,42327,16.31,73436.8,-0.15,-1.47,-1.47,0,*64
1497697528.86,42328,16.31,73434.3,-0.15,-1.39,-1.39,0,*6B
1497697530.1,42329,16.31,73438.5,-0.15,-1.35,-1.39,0,*66
1497697531.28,42330,16.31,73440.0,-0.15,-1.25,-1.25,0,*62
1497697532.47,42331,16.31,73444.3,-0.15,-1.25,-1.29,0,*6F
1497697533.72,42332,16.25,73428.3,-0.15,-1.39,-1.39,0,*60
1497697534.92,42333,16.25,73428.3,-0.15,-1.17,-1.17,0,*61
1497697536.14,42334,16.25,73434.0,-0.15,-0.93,-0.89,0,*6D
1497697537.37,42335,16.25,73426.0,-0.15,-0.89,-0.85,0,*6B
1497697538.6,42336,16.25,73428.8,-0.15,-0.89,-0.89,0,*64
1497697539.83,42337,16.31,73424.3,-0.15,-0.93,-1.01,0,*5F
1497697541.05,42338,16.25,73436.3,-0.15,-0.93,-0.93,0,*6A
1497697542.3,42339,16.31,73430.3,-0.15,-1.01,-1.05,0,*6F
1497697543.52,42340,16.25,73418.0,-0.13,-1.17,-1.17,0,*63
1497697544.76,42341,16.25,73420.3,-0.15,-1.05,-1.05,0,*64
1497697545.99,42342,16.31,73436.5,-0.15,-0.93,-0.93,0,*67
1497697547.21,42343,16.25,73422.3,-0.15,-0.93,-0.93,0,*66
1497697548.44,42344,16.25,73430.8,-0.13,-0.77,-0.85,0,*6A
1497697549.65,42345,16.31,73442.0,-0.13,-0.77,-0.73,0,*62
1497697550.85,42346,16.25,73434.5,-0.13,-0.61,-0.61,0,*65
1497697552.06,42347,16.25,73436.0,-0.13,-0.65,-0.61,0,*60
1497697553.25,42348,16.25,73438.3,-0.13,-0.61,-0.61,0,*6B
1497697554.43,42349,16.25,73438.0,-0.11,-0.57,-0.45,0,*6B
1497697555.62,42350,16.31,73444.5,-0.11,-0.45,-0.37,0,*65
1497697556.82,42351,16.31,73442.0,-0.09,-0.49,-0.37,0,*51
1497697558.02,42352,16.25,73442.3,-0.09,-0.49,-0.49,0,*5B
1497697559.2,42353,16.25,73444.0,-0.07,-0.57,-0.53,0,*50
1497697560.37,42354,16.25,73442.0,-0.07,-0.69,-0.69,0,*53
1497697561.58,42355,16.31,73440.0,-0.09,-0.81,-0.73,0,*51
1497697562.76,42356,16.25,73432.3,-0.07,-0.81,-0.81,0,*51
1497697564.01,42357,16.31,73436.8,-0.09,-0.85,-0.89,0,*52
1497697565.21,42358,16.25,73436.3,-0.07,-0.81,-0.85,0,*5B
1497697566.39,42359,16.25,73436.8,-0.07,-0.81,-0.81,0,*5E
1497697567.57,42360,16.31,73434.0,-0.07,-0.81,-0.81,0,*54
1497697568.77,42361,16.31,73434.0,-0.07,-0.81,-0.85,0,*51
1497697569.99,42362,16.31,73436.3,-0.07,-0.85,-0.85,0,*56
1497697571.21,42363,16.31,73430.3,-0.07,-0.85,-0.85,0,*57
1497697572.41,42364,16.25,73438.5,-0.05,-0.81,-0.81,0,*52
1497697573.62,42365,16.25,73428.3,-0.05,-0.81,-0.81,0,*53
1497697574.82,42366,16.31,73430.5,-0.05,-0.81,-0.81,0,*50
1497697576.04,42367,16.31,73440.3,-0.07,-0.97,-0.97,0,*53
1497697577.28,42368,16.25,73422.3,-0.07,-1.39,-1.43,0,*51
1497697578.46,42369,16.31,73422.3,-0.07,-1.51,-1.55,0,*59
1497697579.67,42370,16.31,73432.5,-0.07,-1.51,-1.43,0,*56
1497697580.88,42371,16.25,73422.3,-0.07,-1.29,-1.39,0,*55
1497697582.09,42372,16.31,73418.5,-0.09,-1.55,-1.55,0,*59
1497697583.3,42373,16.31,73420.0,-0.09,-1.55,-1.55,0,*58
1497697584.51,42374,16.31,73420.3,-0.09,-1.55,-1.59,0,*53
1497697585.69,42375,16.31,73420.3,-0.11,-1.55,-1.59,0,*6B
1497697586.87,42376,16.25,73414.5,-0.11,-1.55,-1.59,0,*68
1497697588.11,42377,16.31,73424.8,-0.09,-1.55,-1.47,0,*5F
1497697589.32,42378,16.25,73420.8,-0.11,-1.35,-1.33,0,*6C
1497697590.51,42379,16.31,73430.3,-0.11,-1.25,-1.21,0,*6F
1497697591.73,42380,16.25,73424.3,-0.11,-0.97,-0.97,0,*6D
1497697592.96,42381,16.31,73432.0,-0.11,-0.97,-0.97,0,*6C
1497697594.18,42382,16.25,73420.8,-0.11,-1.09,-1.21,0,*65
1497697595.42,42383,16.25,73420.5,-0.11,-1.47,-1.47,0,*6E
1497697596.6,42384,16.31,73414.0,-0.11,-1.55,-1.59,0,*65
1497697597.84,42385,16.25,73412.8,-0.11,-1.47,-1.47,0,*68
1497697599.08,42386,16.31,73412.3,-0.11,-1.43,-1.47,0,*6F
1497697600.35,42387,16.31,73416.5,-0.13,-1.47,-1.39,0,*61
1497697601.57,42388,16.31,73416.8,-0.13,-1.63,-1.75,0,*60
1497697602.81,42389,16.31,73416.3,-0.13,-1.79,-1.91,0,*60
1497697604.05,42390,16.31,73406.0,-0.15,-1.87,-1.91,0,*6F
1497697605.3,42391,16.31,73404.0,-0.15,-1.87,-1.87,0,*69
1497697606.49,42392,16.31,73426.8,-0.15,-1.63,-1.63,0,*6A
1497697607.67,42393,16.31,73412.5,-0.15,-1.63,-1.59,0,*62
1497697608.89,42394,16.31,73396.8,-0.15,-1.47,-1.59,0,*63
1497697610.07,42395,16.31,73392.0,-0.15,-1.59,-1.59,0,*6D
1497697611.25,42396,16.31,73422.8,-0.15,-1.59,-1.59,0,*6E
1497697612.44,42397,16.31,73438.8,-0.15,-1.51,-1.51,0,*6F
1497697613.63,42398,16.31,73406.5,-0.15,-1.29,-1.29,0,*60
1497697614.86,42399,16.31,73416.0,-0.17,-1.21,-1.17,0,*66
1497697616.12,42400,16.31,73418.0,-0.17,-0.97,-0.97,0,*64
1497697617.38,42401,16.31,73418.3,-0.17,-1.05,-0.97,0,*5F
1497697618.61,42402,16.25,73422.3,-0.17,-1.17,-1.17,0,*66
1497697619.89,42403,16.31,73422.8,-0.17,-1.39,-1.39,0,*67
1497697621.07,42404,16.31,73420.3,-0.15,-1.59,-1.59,0,*62
1497697622.31,42405,16.25,73420.3,-0.15,-1.91,-2.03,0,*6B
1497697623.53,42406,16.31,73414.5,-0.15,-2.03,-2.23,0,*62
1497697624.71,42407,16.25,73400.8,-0.21,-2.19,-2.27,0,*6B
1497697625.89,42408,16.31,73388.3,-0.21,-2.39,-2.43,0,*64
1497697627.08,42409,16.25,73404.0,-0.21,-2.31,-2.43,0,*6D
1497697628.34,42410,16.31,73378.8,-0.23,-2.47,-2.55,0,*61
1497697629.55,42411,16.31,73382.5,-0.23,-2.43,-2.43,0,*63
1497697630.8,42412,16.31,73376.3,-0.25,-1.99,-2.07,0,*62
1497697632.03,42413,16.31,73400.5,-0.25,-1.83,-1.71,0,*6A
1497697633.23,42414,16.31,73400.0,-0.27,-1.51,-1.51,0,*62
1497697634.42,42415,16.25,73400.5,-0.25,-1.25,-1.25,0,*61
1497697635.66,42416,16.31,73408.0,-0.25,-1.09,-1.01,0,*6A
1497697636.9,42417,16.25,73422.3,-0.25,-1.01,-1.01,0,*63
1497697638.16,42418,16.31,73426.5,-0.23,-1.01,-1.01,0,*6A
1497697639.4,42419,16.31,73426.5,-0.25,-1.01,-1.01,0,*6D
1497697640.66,42420,16.25,73418.8,-0.23,-1.09,-1.01,0,*69
1497697641.92,42421,16.31,73422.3,-0.23,-1.13,-1.13,0,*60
1497697643.16,42422,16.31,73424.5,-0.23,-0.93,-0.93,0,*63
1497697644.39,42423,16.31,73436.3,-0.21,-0.89,-0.93,0,*6B
1497697645.62,42424,16.31,73438.8,-0.21,-0.97,-1.05,0,*5D
1497697646.87,42425,16.31,73430.8,-0.17,-1.29,-1.39,0,*62
1497697648.09,42426,16.31,73426.8,-0.21,-1.39,-1.33,0,*6F
1497697649.28,42427,16.25,73430.3,-0.21,-1.17,-1.21,0,*61
1497697650.51,42428,16.31,73428.5,-0.21,-0.97,-1.05,0,*51
1497697651.74,42429,16.31,73432.5,-0.21,-0.97,-0.97,0,*6A
1497697653.0,42430,16.31,73414.0,-0.17,-0.97,-0.97,0,*67
1497697654.25,42431,16.31,73430.8,-0.17,-0.93,-0.89,0,*6D
1497697655.48,42432,16.31,73430.0,-0.21,-0.89,-0.89,0,*60
1497697656.73,42433,16.31,73406.5,-0.17,-0.93,-0.93,0,*64
1497697657.99,42434,16.31,73410.8,-0.17,-0.93,-0.93,0,*63
1497697659.19,42435,16.31,73416.5,-0.17,-0.77,-0.65,0,*61
1497697660.38,42436,16.31,73414.3,-0.15,-0.73,-0.65,0,*64
1497697661.56,42437,16.31,73428.8,-0.15,-0.77,-0.73,0,*66
1497697662.76,42438,16.31,73428.0,-0.15,-0.77,-0.85,0,*60
1497697664.01,42439,16.31,73414.8,-0.15,-1.01,-1.05,0,*68
1497697665.28,42440,16.31,73410.0,-0.13,-1.05,-1.01,0,*60
1497697666.51,42441,16.31,73384.8,-0.15,-1.05,-0.93,0,*5D
1497697667.79,42442,16.31,73404.3,-0.13,-1.05,-1.05,0,*66
1497697669.03,42443,16.31,73414.5,-0.15,-1.01,-1.01,0,*61
1497697670.3,42444,16.31,73438.0,-0.13,-1.01,-1.05,0,*64
1497697671.56,42445,16.31,73438.0,-0.13,-1.13,-1.13,0,*61
1497697672.81,42446,16.31,73438.3,-0.13,-0.93,-0.93,0,*62
1497697674.05,42447,16.31,73442.8,-0.15,-1.13,-1.05,0,*62
1497697675.3,42448,16.31,73442.8,-0.13,-1.47,-1.51,0,*6B
1497697676.52,42449,16.31,73440.0,-0.13,-1.63,-1.71,0,*6E
1497697677.71,42450,16.31,73430.5,-0.15,-1.71,-1.75,0,*67
1497697678.9,42451,16.31,73432.3,-0.15,-1.63,-1.63,0,*62
1497697680.12,42452,16.31,73422.5,-0.17,-1.55,-1.63,0,*66
1497697681.34,42453,16.31,73396.3,-0.17,-1.67,-1.75,0,*61
1497697682.56,42454,16.31,73394.0,-0.17,-1.75,-1.79,0,*69
1497697683.79,42455,16.31,73410.8,-0.17,-1.63,-1.67,0,*60
1497697685.0,42456,16.31,73418.8,-0.21,-1.33,-1.39,0,*68
1497697686.19,42457,16.31,73418.0,-0.21,-1.21,-1.21,0,*63
1497697687.47,42458,16.31,73430.0,-0.17,-1.09,-1.05,0,*65
1497697688.74,42459,16.31,73440.5,-0.17,-1.05,-1.09,0,*64
1497697690.0,42460,16.31,73436.8,-0.17,-1.09,-1.09,0,*62
1497697691.23,42461,16.31,73448.0,-0.17,-1.17,-1.21,0,*66
1497697692.48,42462,16.31,73440.3,-0.17,-1.17,-1.09,0,*6F
1497697693.74,42463,16.31,73452.3,-0.17,-0.97,-0.93,0,*65
1497697694.98,42464,16.31,73438.3,-0.17,-0.89,-0.81,0,*6E
1497697696.21,42465,16.31,73442.3,-0.17,-0.93,-0.81,0,*64
1497697697.42,42466,16.31,73420.5,-0.15,-0.85,-0.73,0,*6F
1497697698.61,42467,16.31,73440.3,-0.15,-0.73,-0.77,0,*63
1497697699.79,42468,16.31,73442.0,-0.15,-0.77,-0.73,0,*6C
1497697700.97,42469,16.31,73442.8,-0.15,-0.65,-0.61,0,*6D